When you browse on this site, cookies collect data to enhance your experience and personalize the content and advertising you see.
Visit our Privacy Policy to learn more. By continuing to use the site, you agree to this use of cookies and data.
  • In Czech Republic
  • List of Countries
  • For 7 days
  • Water Temperature
  • Satellite Maps
  • Weather Map
  • Weather Widgets
  • user-avatar
    Login

    Hourly Weather Durres

    Today, 21 March, Thursday

    Time Temperature Precipitation Wind Pressure Humidity
    00:00 +14°C° 0 mm 6 mps 766 mmHg 66%
    01:00 +14°C° 0 mm 6 mps 766 mmHg 65%
    02:00 +14°C° 0 mm 6 mps 766 mmHg 64%
    03:00 +14°C° 0 mm 6 mps 767 mmHg 64%
    04:00 +13°C° 0 mm 6 mps 767 mmHg 63%
    05:00 +13°C° 0 mm 6 mps 767 mmHg 63%
    06:00 +13°C° 0 mm 6 mps 767 mmHg 63%
    07:00 +14°C° 0 mm 5 mps 767 mmHg 63%
    08:00 +16°C° 0 mm 5 mps 767 mmHg 56%
    09:00 +19°C° 0 mm 5 mps 767 mmHg 50%
    10:00 +21°C° 0 mm 5 mps 767 mmHg 43%
    11:00 +22°C° 0 mm 5 mps 767 mmHg 40%
    12:00 +23°C° 0 mm 5 mps 767 mmHg 38%
    13:00 +23°C° 0 mm 5 mps 767 mmHg 35%
    14:00 +23°C° 0 mm 6 mps 767 mmHg 36%
    15:00 +23°C° 0 mm 6 mps 766 mmHg 38%
    16:00 +22°C° 0 mm 6 mps 766 mmHg 39%
    17:00 +20°C° 0 mm 6 mps 766 mmHg 43%
    18:00 +19°C° 0 mm 5 mps 767 mmHg 48%
    19:00 +16°C° 0 mm 5 mps 767 mmHg 52%
    20:00 +15°C° 0 mm 5 mps 767 mmHg 54%
    21:00 +14°C° 0 mm 5 mps 767 mmHg 56%
    22:00 +14°C° 0 mm 5 mps 768 mmHg 57%
    23:00 +13°C° 0 mm 5 mps 768 mmHg 58%

    Tomorrow, 22 March, Friday

    Time Temperature Precipitation Wind Pressure Humidity
    00:00 +13°C° 0 mm 5 mps 768 mmHg 59%
    01:00 +13°C° 0 mm 5 mps 768 mmHg 60%
    02:00 +12°C° 0 mm 5 mps 768 mmHg 61%
    03:00 +12°C° 0 mm 5 mps 768 mmHg 62%
    04:00 +12°C° 0 mm 5 mps 768 mmHg 62%
    05:00 +12°C° 0 mm 5 mps 768 mmHg 62%
    06:00 +12°C° 0 mm 5 mps 768 mmHg 62%
    07:00 +13°C° 0 mm 4 mps 768 mmHg 62%
    08:00 +15°C° 0 mm 4 mps 768 mmHg 55%
    09:00 +18°C° 0 mm 4 mps 768 mmHg 47%
    10:00 +20°C° 0 mm 3 mps 768 mmHg 40%
    11:00 +21°C° 0 mm 4 mps 767 mmHg 38%
    12:00 +22°C° 0 mm 5 mps 767 mmHg 36%
    13:00 +23°C° 0 mm 5 mps 767 mmHg 34%
    14:00 +22°C° 0 mm 6 mps 766 mmHg 36%
    15:00 +22°C° 0 mm 7 mps 766 mmHg 38%
    16:00 +21°C° 0 mm 8 mps 765 mmHg 40%
    17:00 +20°C° 0 mm 8 mps 765 mmHg 47%
    18:00 +17°C° 0 mm 8 mps 766 mmHg 54%
    19:00 +15°C° 0 mm 8 mps 766 mmHg 61%
    20:00 +14°C° 0 mm 7 mps 766 mmHg 59%
    21:00 +14°C° 0 mm 6 mps 766 mmHg 57%
    22:00 +14°C° 0 mm 5 mps 766 mmHg 55%
    23:00 +13°C° 0 mm 4 mps 766 mmHg 54%

    Day after tomorrow, 23 March, Saturday

    Time Temperature Precipitation Wind Pressure Humidity
    00:00 +13°C° 0 mm 4 mps 766 mmHg 53%
    01:00 +13°C° 0 mm 3 mps 766 mmHg 53%
    02:00 +13°C° 0 mm 3 mps 766 mmHg 54%
    03:00 +12°C° 0 mm 3 mps 766 mmHg 55%
    04:00 +12°C° 0 mm 3 mps 765 mmHg 56%
    05:00 +12°C° 0 mm 3 mps 765 mmHg 57%
    06:00 +13°C° 0 mm 3 mps 765 mmHg 58%
    07:00 +13°C° 0 mm 3 mps 765 mmHg 58%
    08:00 +16°C° 0 mm 3 mps 765 mmHg 51%
    09:00 +18°C° 0 mm 3 mps 765 mmHg 44%
    10:00 +21°C° 0 mm 3 mps 765 mmHg 37%
    11:00 +22°C° 0 mm 3 mps 764 mmHg 35%
    12:00 +22°C° 0 mm 4 mps 764 mmHg 34%
    13:00 +23°C° 0 mm 5 mps 764 mmHg 32%
    14:00 +23°C° 0 mm 6 mps 764 mmHg 35%
    15:00 +22°C° 0 mm 7 mps 763 mmHg 37%
    16:00 +22°C° 0 mm 8 mps 763 mmHg 40%
    17:00 +20°C° 0 mm 8 mps 763 mmHg 47%
    18:00 +17°C° 0 mm 7 mps 764 mmHg 53%
    19:00 +15°C° 0 mm 7 mps 764 mmHg 60%
    20:00 +15°C° 0 mm 6 mps 764 mmHg 58%
    21:00 +15°C° 0 mm 5 mps 765 mmHg 57%
    22:00 +14°C° 0 mm 4 mps 765 mmHg 56%
    23:00 +14°C° 0 mm 3 mps 765 mmHg 55%

    24 March, Sunday

    Time Temperature Precipitation Wind Pressure Humidity
    00:00 +14°C° 0 mm 3 mps 765 mmHg 54%
    01:00 +14°C° 0 mm 2 mps 765 mmHg 53%
    02:00 +14°C° 0 mm 2 mps 765 mmHg 53%
    03:00 +14°C° 0 mm 2 mps 765 mmHg 54%
    04:00 +13°C° 0 mm 2 mps 765 mmHg 54%
    05:00 +14°C° 0 mm 2 mps 765 mmHg 55%
    06:00 +15°C° 0 mm 2 mps 765 mmHg 56%
    07:00 +15°C° 0 mm 2 mps 765 mmHg 56%
    08:00 +18°C° 0 mm 1 mps 765 mmHg 50%
    09:00 +21°C° 0 mm 1 mps 765 mmHg 44%
    10:00 +21°C° 0 mm 0 mps 765 mmHg 38%
    11:00 +23°C° 0 mm 2 mps 765 mmHg 39%
    12:00 +22°C° 0 mm 3 mps 765 mmHg 39%
    13:00 +23°C° 0 mm 4 mps 765 mmHg 39%
    14:00 +22°C° 0 mm 4 mps 764 mmHg 43%
    15:00 +21°C° 0 mm 4 mps 764 mmHg 46%
    16:00 +20°C° 0 mm 4 mps 764 mmHg 50%
    17:00 +18°C° 0 mm 4 mps 764 mmHg 57%
    18:00 +17°C° 0 mm 3 mps 764 mmHg 64%
    19:00 +14°C° 0 mm 3 mps 764 mmHg 71%
    20:00 +15°C° 0 mm 2 mps 764 mmHg 71%
    21:00 +15°C° 0 mm 1 mps 764 mmHg 71%
    22:00 +13°C° 0 mm 0 mps 764 mmHg 71%
    23:00 +13°C° 0 mm 0 mps 764 mmHg 71%

    25 March, Monday

    Time Temperature Precipitation Wind Pressure Humidity
    00:00 +13°C° 0 mm 0 mps 764 mmHg 71%
    01:00 +13°C° 0 mm 0 mps 764 mmHg 71%
    02:00 +13°C° 0 mm 1 mps 764 mmHg 71%
    03:00 +13°C° 0 mm 1 mps 764 mmHg 71%
    04:00 +13°C° 0 mm 1 mps 763 mmHg 72%
    05:00 +14°C° 0 mm 1 mps 763 mmHg 69%
    06:00 +14°C° 0 mm 1 mps 763 mmHg 67%
    07:00 +14°C° 0 mm 0 mps 763 mmHg 64%
    08:00 +18°C° 0 mm 1 mps 763 mmHg 59%
    09:00 +19°C° 0 mm 1 mps 763 mmHg 54%
    10:00 +21°C° 0 mm 1 mps 763 mmHg 49%
    11:00 +20°C° 0 mm 2 mps 762 mmHg 49%
    12:00 +21°C° 0 mm 3 mps 762 mmHg 49%
    13:00 +21°C° 0 mm 4 mps 761 mmHg 48%
    14:00 +20°C° 0 mm 4 mps 761 mmHg 51%
    15:00 +20°C° 0 mm 3 mps 760 mmHg 53%
    16:00 +19°C° 0 mm 3 mps 760 mmHg 55%
    17:00 +18°C° 0 mm 3 mps 760 mmHg 63%
    18:00 +16°C° 0 mm 2 mps 760 mmHg 71%
    19:00 +14°C° 0 mm 1 mps 760 mmHg 79%
    20:00 +14°C° 0 mm 1 mps 760 mmHg 79%
    21:00 +14°C° 0 mm 1 mps 760 mmHg 80%
    22:00 +12°C° 0 mm 0 mps 760 mmHg 80%
    23:00 +12°C° 0 mm 0 mps 760 mmHg 80%

    26 March, Tuesday

    Time Temperature Precipitation Wind Pressure Humidity
    00:00 +12°C° 0 mm 0 mps 760 mmHg 80%
    01:00 +12°C° 0 mm 0 mps 759 mmHg 81%
    02:00 +11°C° 0 mm 0 mps 759 mmHg 80%
    03:00 +11°C° 0 mm 0 mps 759 mmHg 80%
    04:00 +11°C° 0 mm 0 mps 759 mmHg 80%
    05:00 +13°C° 0 mm 1 mps 759 mmHg 78%
    06:00 +13°C° 0 mm 1 mps 759 mmHg 75%
    07:00 +14°C° 0 mm 1 mps 759 mmHg 73%
    08:00 +15°C° 0 mm 1 mps 759 mmHg 66%
    09:00 +18°C° 0 mm 1 mps 759 mmHg 59%
    10:00 +17°C° 0 mm 0 mps 759 mmHg 53%
    11:00 +20°C° 0 mm 1 mps 759 mmHg 52%
    12:00 +19°C° 0 mm 2 mps 758 mmHg 50%
    13:00 +20°C° 0 mm 3 mps 758 mmHg 49%
    14:00 +19°C° 0 mm 4 mps 758 mmHg 52%
    15:00 +18°C° 0 mm 4 mps 758 mmHg 55%
    16:00 +17°C° 0 mm 5 mps 757 mmHg 58%
    17:00 +16°C° 0 mm 5 mps 758 mmHg 66%
    18:00 +15°C° 0 mm 4 mps 758 mmHg 74%
    19:00 +13°C° 0 mm 4 mps 758 mmHg 82%
    20:00 +13°C° 0.6 mm 4 mps 759 mmHg 83%
    21:00 +13°C° 0.6 mm 4 mps 759 mmHg 85%
    22:00 +12°C° 0.6 mm 4 mps 760 mmHg 87%
    23:00 +12°C° 0.3 mm 5 mps 760 mmHg 84%
    Show more